KB5DPX Weather Reports


time (UTC)temp
C
wind
direction
speed
KPH
gust
KPH
rain 1hr
cm
rain 24hr
cm
rain mn
cm
humidity
%
barometer
mb
20260502220744 8 313 11.3 16.1 0.00 0.00 0.00 44 1015.2
20260502220230 8 313 9.7 16.1 0.00 0.00 0.00 42 1015.2
20260502215752 8 302 9.7 16.1 0.00 0.00 0.00 42 1015.2
20260502215239 8 307 8.0 14.5 0.00 0.00 0.00 43 1015.2
20260502214726 8 295 6.4 17.7 0.00 0.00 0.00 44 1015.2
20260502214242 8 279 12.9 17.7 0.00 0.00 0.00 44 1015.3
20260502213728 8 313 14.5 17.7 0.00 0.00 0.00 45 1015.3
20260502213244 8 300 11.3 19.3 0.00 0.00 0.00 45 1015.4
20260502212742 8 309 11.3 19.3 0.00 0.00 0.00 45 1015.4
20260502212248 7 300 11.3 17.7 0.00 0.00 0.00 44 1015.4
20260502211751 7 294 9.7 19.3 0.00 0.00 0.00 45 1015.5
20260502211238 7 287 12.9 19.3 0.00 0.00 0.00 45 1015.5
20260502210744 8 295 14.5 19.3 0.00 0.00 0.00 47 1015.6
20260502210249 8 305 12.9 20.9 0.00 0.00 0.00 43 1015.6
20260502205728 7 294 12.9 20.9 0.00 0.00 0.00 46 1015.7
20260502205243 7 308 11.3 19.3 0.00 0.00 0.00 45 1015.7
20260502204729 7 319 11.3 19.3 0.00 0.00 0.00 44 1015.8
20260502204244 7 286 12.9 17.7 0.00 0.00 0.00 44 1015.8
20260502203745 7 308 8.0 20.9 0.00 0.00 0.00 46 1015.9
20260502203252 7 307 12.9 22.5 0.00 0.00 0.00 43 1015.9
20260502202728 7 290 14.5 22.5 0.00 0.00 0.00 44 1015.9
20260502202245 7 290 12.9 20.9 0.00 0.00 0.00 44 1016.0
20260502201731 7 302 12.9 22.5 0.00 0.00 0.00 45 1016.0
20260502201246 7 298 16.1 22.5 0.00 0.00 0.00 45 1016.2
20260502200732 7 301 16.1 25.7 0.00 0.00 0.00 46 1016.2
20260502200246 7 292 19.3 25.7 0.00 0.00 0.00 45 1016.3
20260502195739 7 278 17.7 25.7 0.00 0.00 0.00 44 1016.3
20260502195226 7 290 20.9 25.7 0.00 0.00 0.00 45 1016.4
20260502194246 7 305 17.7 24.1 0.00 0.00 0.00 45 1016.5
20260502193734 7 281 14.5 24.1 0.00 0.00 0.00 47 1016.6
20260502193249 7 293 17.7 24.1 0.00 0.00 0.00 46 1016.7
20260502192726 7 304 14.5 24.1 0.00 0.00 0.00 47 1016.7
20260502192241 7 300 11.3 22.5 0.00 0.00 0.00 46 1016.7
20260502191743 7 298 12.9 25.7 0.00 0.00 0.00 48 1016.9
20260502191250 6 277 19.3 25.7 0.00 0.00 0.00 48 1016.9
20260502190737 6 300 16.1 27.4 0.00 0.00 0.00 47 1017.0
20260502190226 6 297 17.7 32.2 0.00 0.00 0.00 49 1017.0
20260502185752 6 281 16.1 32.2 0.00 0.00 0.00 48 1017.1
20260502185240 6 282 17.7 29.0 0.00 0.00 0.00 48 1017.1
20260502184728 6 303 17.7 29.0 0.00 0.00 0.00 49 1017.1
20260502184244 6 300 20.9 27.4 0.00 0.00 0.00 50 1017.2
20260502183725 6 273 19.3 27.4 0.00 0.00 0.00 50 1017.3
20260502183242 6 312 19.3 29.0 0.00 0.00 0.00 51 1017.4
20260502182742 6 292 19.3 29.0 0.00 0.00 0.00 52 1017.4
20260502182231 5 295 14.5 25.7 0.00 0.00 0.00 55 1017.4
20260502181727 5 294 16.1 30.6 0.00 0.00 0.00 55 1017.4
20260502181242 5 288 17.7 30.6 0.00 0.00 0.00 56 1017.5
20260502180729 5 292 17.7 29.0 0.00 0.00 0.00 57 1017.5
20260502180244 5 290 17.7 27.4 0.00 0.00 0.00 60 1017.5
20260502170243 5 251 19.3 25.7 0.00 0.00 0.00 53 1017.7
20260502164231 5 273 16.1 29.0 0.00 0.00 0.00 49 1017.8
20260502163741 5 281 17.7 27.4 0.00 0.00 0.00 50 1017.8
20260502163247 5 280 19.3 27.4 0.00 0.00 0.00 51 1017.9
20260502162743 5 281 17.7 27.4 0.00 0.00 0.00 50 1017.9
20260502162247 5 278 12.9 22.5 0.00 0.00 0.00 55 1017.9
20260502161733 6 261 17.7 22.5 0.00 0.00 0.00 54 1018.0
20260502161249 5 290 14.5 22.5 0.00 0.00 0.00 57 1018.0
20260502160733 5 294 16.1 24.1 0.00 0.00 0.00 59 1017.9
20260502160247 5 288 16.1 24.1 0.00 0.00 0.00 58 1018.0
20260502152230 5 278 17.7 24.1 0.00 0.00 0.00 64 1018.1
20260502151740 4 279 16.1 24.1 0.00 0.00 0.00 64 1018.1
20260502151226 4 290 14.5 22.5 0.00 0.00 0.00 66 1018.1
20260502150740 4 289 16.1 22.5 0.00 0.00 0.00 66 1018.1
20260502150245 4 278 16.1 20.9 0.00 0.00 0.00 66 1018.1
20260502130736 3 300 16.1 24.1 0.00 0.00 0.00 75 1018.4
20260502130250 3 273 12.9 24.1 0.00 0.00 0.00 76 1018.3
20260502123739 2 284 14.5 22.5 0.00 0.00 0.00 82 1018.4
20260502123245 2 266 14.5 22.5 0.00 0.00 0.00 82 1018.4
20260502122742 2 275 12.9 20.9 0.00 0.00 0.00 84 1018.4
20260502122245 2 279 11.3 20.9 0.00 0.00 0.00 86 1018.4
20260502121748 1 267 9.7 19.3 0.00 0.00 0.00 88 1018.4
20260502121231 1 265 12.9 19.3 0.00 0.00 0.00 90 1018.4
20260502120740 0 276 9.7 17.7 0.00 0.00 0.00 90 1018.4
20260502120245 0 264 9.7 17.7 0.00 0.00 0.00 83 1018.4
20260502115742 0 259 9.7 17.7 0.00 0.00 0.00 77 1018.4
20260502115227 -1 281 0.0 0.0 0.00 0.00 0.00 77 1018.4
20260502114740 -1 281 0.0 0.0 0.00 0.00 0.00 78 1018.4
20260502114229 -1 281 0.0 0.0 0.00 0.00 0.00 78 1018.4
20260502113742 -2 281 0.0 0.0 0.00 0.00 0.00 78 1018.4
20260502113242 -2 281 0.0 0.0 0.00 0.00 0.00 77 1018.4
20260502112740 -2 281 0.0 0.0 0.00 0.00 0.00 77 1018.3
20260502112246 -3 281 0.0 0.0 0.00 0.00 0.00 78 1018.3
20260502111730 -3 281 0.0 0.0 0.00 0.00 0.00 78 1018.3
20260502111225 -3 281 0.0 0.0 0.00 0.00 0.00 79 1018.3
20260502110740 -3 281 0.0 0.0 0.00 0.00 0.00 79 1018.3
20260502110227 -3 281 0.0 0.0 0.00 0.00 0.00 80 1018.3
20260502105733 -3 281 0.0 0.0 0.00 0.00 0.00 80 1018.3
20260502105246 -3 281 0.0 0.0 0.00 0.00 0.00 80 1018.3
20260502104733 -3 281 0.0 0.0 0.00 0.00 0.00 80 1018.3
20260502104249 -3 281 0.0 0.0 0.00 0.00 0.00 80 1018.3
20260502103738 -3 281 0.0 0.0 0.00 0.00 0.00 80 1018.3
20260502103226 -3 281 0.0 0.0 0.00 0.00 0.00 80 1018.3
20260502102731 -3 281 0.0 0.0 0.00 0.00 0.00 80 1018.3
20260502102227 -3 281 0.0 0.0 0.00 0.00 0.00 81 1018.3
20260502101741 -3 281 0.0 0.0 0.00 0.00 0.00 81 1018.2
20260502101229 -3 281 0.0 0.0 0.00 0.00 0.00 81 1018.3
20260502100725 -3 281 0.0 0.0 0.00 0.00 0.00 81 1018.3
20260502100237 -3 281 0.0 0.0 0.00 0.00 0.00 81 1018.2
20260502091227 -3 281 0.0 0.0 0.00 0.00 0.00 81 1018.2
20260502090743 -3 281 0.0 0.0 0.00 0.00 0.00 81 1018.1
20260502090230 -3 281 0.0 0.0 0.00 0.00 0.00 81 1018.1
20260502071248 -2 281 0.0 0.0 0.00 0.00 0.00 82 1017.9
20260502070735 -2 281 0.0 0.0 0.00 0.00 0.00 82 1017.9
20260502070250 -2 281 0.0 0.0 0.00 0.00 0.00 82 1017.9
20260502065749 -2 281 0.0 0.0 0.00 0.00 0.00 83 1017.9
20260502065236 -2 281 0.0 0.0 0.00 0.00 0.00 83 1017.9
20260502064751 -2 281 0.0 0.0 0.00 0.00 0.00 83 1017.9
20260502064252 -2 281 0.0 0.0 0.00 0.00 0.00 83 1017.9
20260502063740 -2 281 0.0 0.0 0.00 0.00 0.00 83 1018.0
20260502063226 -2 281 0.0 0.0 0.00 0.00 0.00 84 1018.0
20260502062733 -2 281 0.0 0.0 0.00 0.00 0.00 84 1018.0
20260502062248 -2 281 0.0 0.0 0.00 0.00 0.00 85 1018.0
20260502061731 -2 281 0.0 0.0 0.00 0.00 0.00 85 1018.0
20260502061226 -2 281 0.0 0.0 0.00 0.00 0.00 85 1018.0
20260502060741 -1 281 0.0 0.0 0.00 0.00 0.00 86 1018.0
20260502060243 -1 281 0.0 0.0 0.00 0.00 0.00 86 1018.0
20260502055742 -1 281 0.0 0.0 0.00 0.00 0.00 87 1018.0
20260502055247 -1 281 0.0 0.0 0.00 0.00 0.00 87 1018.0
20260502054735 -1 281 0.0 0.0 0.00 0.00 0.00 87 1018.1
20260502054251 -1 281 0.0 0.0 0.00 0.00 0.00 87 1018.0
20260502053737 -1 281 0.0 0.0 0.00 0.00 0.00 88 1018.0
20260502053251 -1 281 0.0 0.0 0.00 0.00 0.00 89 1018.0
20260502052731 0 281 0.0 0.0 0.00 0.00 0.00 88 1018.0
20260502052226 0 281 0.0 0.0 0.00 0.00 0.00 88 1018.0
20260502051738 0 281 0.0 0.0 0.00 0.00 0.00 85 1018.0
20260502051226 0 281 0.0 0.0 0.00 0.00 0.00 83 1018.0
20260502050741 -1 281 0.0 0.0 0.00 0.00 0.00 82 1018.0
20260502050229 -1 281 0.0 0.0 0.00 0.00 0.00 82 1018.0
20260502045733 -1 281 0.0 0.0 0.00 0.00 0.00 83 1017.9
20260502045248 -1 281 0.0 0.0 0.00 0.00 0.00 83 1017.9
20260502044736 -1 281 0.0 0.0 0.00 0.00 0.00 84 1017.9
20260502044252 -1 281 0.0 0.0 0.00 0.00 0.00 85 1017.9
20260502043753 -1 281 0.0 0.0 0.00 0.00 0.00 84 1017.7
20260502043241 -1 281 0.0 0.0 0.00 0.00 0.00 84 1017.9
20260502042740 -1 281 0.0 0.0 0.00 0.00 0.00 85 1017.8
20260502042228 -1 281 0.0 0.0 0.00 0.00 0.00 86 1017.9
20260502041744 0 281 0.0 0.0 0.00 0.00 0.00 86 1017.9
20260502041231 0 281 0.0 0.0 0.00 0.00 0.00 86 1017.9
20260502040727 0 281 0.0 0.0 0.00 0.00 0.00 87 1017.9
20260502040244 0 281 0.0 0.0 0.00 0.00 0.00 87 1018.0
20260502035747 0 281 0.0 0.0 0.00 0.00 0.00 87 1018.0
20260502035253 0 281 0.0 0.0 0.00 0.00 0.00 88 1017.9
20260502034741 0 281 0.0 0.0 0.00 0.00 0.00 88 1017.9
20260502034249 0 281 0.0 0.0 0.00 0.00 0.00 88 1017.9
20260502033737 0 281 0.0 0.0 0.00 0.00 0.00 94 1017.9
20260502033250 0 281 0.0 3.2 0.00 0.00 0.00 88 1017.9
20260502032730 1 281 0.0 4.8 0.00 0.00 0.00 88 1018.0
20260502032246 1 281 3.2 4.8 0.00 0.00 0.00 88 1017.9
20260502031749 1 281 1.6 4.8 0.00 0.00 0.00 88 1017.9
20260502031237 1 281 3.2 6.4 0.00 0.00 0.00 88 1017.9
20260502030744 1 281 3.2 8.0 0.00 0.00 0.00 88 1018.0
20260502030250 1 281 4.8 6.4 0.00 0.00 0.00 88 1018.0
20260502025730 1 281 3.2 8.0 0.00 0.00 0.00 88 1018.0
20260502025227 1 281 4.8 11.3 0.00 0.00 0.00 89 1018.0
20260502024743 1 281 8.0 11.3 0.00 0.00 0.00 89 1018.1
20260502024231 1 281 4.8 6.4 0.00 0.00 0.00 89 1018.1
20260502023727 1 281 4.8 8.0 0.00 0.00 0.00 89 1018.1
20260502023239 1 281 4.8 12.9 0.00 0.00 0.00 89 1018.1
20260502022737 1 281 4.8 12.9 0.00 0.00 0.00 89 1018.1
20260502022244 1 281 3.2 12.9 0.00 0.00 0.00 89 1018.1
20260502021731 1 281 4.8 11.3 0.00 0.00 0.00 89 1018.1
20260502021247 1 281 4.8 14.5 0.00 0.00 0.00 89 1018.1
20260502020734 1 282 4.8 14.5 0.00 0.00 0.00 89 1018.1
20260502020250 1 282 9.7 12.9 0.00 0.00 0.00 89 1018.1
20260502015727 1 282 8.0 12.9 0.00 0.00 0.00 89 1018.1
20260502015239 2 282 4.8 12.9 0.00 0.00 0.00 89 1018.1
20260502014727 2 282 8.0 12.9 0.00 0.00 0.00 89 1018.0
20260502014244 2 282 8.0 14.5 0.00 0.00 0.00 89 1018.0
20260502013732 2 282 6.4 14.5 0.00 0.00 0.00 89 1018.0
20260502013248 2 283 4.8 11.3 0.00 0.00 0.00 89 1017.9
20260502012745 2 283 6.4 16.1 0.00 0.00 0.00 89 1017.9
20260502012232 2 283 8.0 16.1 0.00 0.00 0.00 89 1018.0
20260502011748 2 283 8.0 14.5 0.00 0.00 0.00 89 1017.9
20260502011251 2 271 8.0 17.7 0.00 0.00 0.00 89 1017.8
20260502010739 2 270 9.7 19.3 0.00 0.00 0.00 89 1017.7
20260502010246 2 273 11.3 20.9 0.00 0.00 0.00 89 1017.7
20260502005726 2 264 12.9 20.9 0.00 0.00 0.00 89 1017.7
20260502005242 2 290 3.2 16.1 0.00 0.00 0.00 88 1017.7
20260502004728 2 281 9.7 14.5 0.00 0.00 0.00 88 1017.7
20260502004241 2 281 6.4 17.7 0.00 0.00 0.00 88 1017.7
20260502003729 2 280 11.3 17.7 0.00 0.00 0.00 87 1017.7
20260502003240 2 287 11.3 17.7 0.00 0.00 0.00 86 1017.7
20260502002739 2 298 9.7 17.7 0.00 0.00 0.00 85 1017.7
20260502002246 2 288 8.0 24.1 0.00 0.00 0.00 84 1017.7
20260502001732 2 257 16.1 24.1 0.00 0.00 0.00 81 1017.6
20260502001246 2 289 12.9 22.5 0.00 0.00 0.00 80 1017.5
20260502000731 2 282 12.9 20.9 0.00 0.00 0.00 79 1017.5
20260502000248 2 279 14.5 19.3 0.00 0.00 0.00 80 1017.4
20260501235744 2 271 11.3 20.9 0.00 0.00 0.00 81 1017.3
20260501235227 2 268 14.5 20.9 0.00 0.00 0.00 83 1017.3
20260501234742 2 277 14.5 22.5 0.00 0.00 0.00 84 1017.3
20260501234249 2 274 12.9 22.5 0.00 0.00 0.00 85 1017.3
20260501233736 2 288 9.7 22.5 0.00 0.00 0.00 85 1017.3
20260501233252 2 293 14.5 22.5 0.00 0.00 0.00 84 1017.3
20260501232731 2 290 14.5 19.3 0.00 0.00 0.00 84 1017.3
20260501232244 2 302 9.7 24.1 0.00 0.00 0.00 83 1017.3
20260501231731 2 302 12.9 24.1 0.00 0.00 0.00 84 1017.4
20260501231241 2 292 12.9 20.9 0.00 0.00 0.00 83 1017.2
20260501230747 2 313 11.3 22.5 0.00 0.00 0.00 84 1017.2
20260501230249 2 325 12.9 22.5 0.00 0.00 0.00 85 1017.2
20260501225728 2 311 12.9 17.7 0.00 0.00 0.00 87 1017.2
20260501225243 2 321 14.5 17.7 0.00 0.00 0.00 87 1017.1
20260501224729 2 316 14.5 19.3 0.00 0.00 0.00 88 1017.2
20260501224244 2 308 14.5 20.9 0.00 0.00 0.00 88 1017.2
20260501223730 2 313 14.5 24.1 0.00 0.00 0.00 87 1017.2
20260501223242 2 306 16.1 24.1 0.00 0.00 0.00 87 1017.3
20260501222740 2 302 12.9 20.9 0.00 0.00 0.00 86 1017.2
20260501222245 2 300 14.5 20.9 0.00 0.00 0.00 85 1017.2
20260501221731 2 302 14.5 20.9 0.00 0.00 0.00 84 1017.1
20260501221245 2 314 11.3 19.3 0.00 0.00 0.00 84 1017.1